Back to catalog

STARLINK-31255

AliveCommunicationsVLEO
NORAD 58893·PAYLOAD·🇺🇸 United States

Launched Jan 29, 2024 from Vandenberg Space Force Base

Loading…

Next Passes (next 24 hours)

TLE

FreshSource: CelesTrak SupGP

Epoch: Sep 15, 2026, 03:26 UTC

1 58893C 24020T   26258.14354167  .00012450  00000+0  36788-3 0  2589
2 58893  53.1562 158.5102 0001331  83.0602 240.2990 15.34380416    18

Track STARLINK-31255 in real time with AllMySat

Download on the App Store